TimeEDT,TemperatureF,Dew PointF,Humidity,Sea Level PressureIn,VisibilityMPH,Wind Direction,Wind SpeedMPH,Gust SpeedMPH,PrecipitationIn,Events,Conditions,WindDirDegrees,DateUTC
12:53 AM,66.9,64.0,90,29.92,10.0,Calm,Calm,-,0.04,Rain,Light Rain,0,2013-07-28 04:53:00
1:53 AM,66.9,64.9,93,29.90,9.0,East,3.5,-,0.00,Rain,Light Rain,80,2013-07-28 05:53:00
2:53 AM,66.9,64.9,93,29.88,10.0,East,4.6,-,0.02,Rain,Light Rain,90,2013-07-28 06:53:00
3:53 AM,66.9,64.0,90,29.87,10.0,East,5.8,-,0.01,Rain,Light Rain,90,2013-07-28 07:53:00
4:53 AM,66.9,64.0,90,29.88,10.0,East,3.5,-,0.00,,Mostly Cloudy,100,2013-07-28 08:53:00
5:53 AM,66.9,64.0,90,29.89,10.0,ENE,3.5,-,N/A,,Mostly Cloudy,70,2013-07-28 09:53:00
6:53 AM,66.9,64.0,90,29.89,10.0,East,3.5,-,0.00,,Overcast,90,2013-07-28 10:53:00
7:53 AM,70.0,64.9,84,29.89,10.0,ESE,4.6,-,N/A,,Mostly Cloudy,110,2013-07-28 11:53:00
8:53 AM,73.9,66.0,76,29.89,10.0,South,6.9,-,N/A,,Clear,170,2013-07-28 12:53:00
9:53 AM,73.0,66.0,79,29.88,10.0,SSW,4.6,-,N/A,,Overcast,200,2013-07-28 13:53:00
10:53 AM,75.0,66.9,76,29.89,10.0,South,3.5,-,N/A,,Overcast,190,2013-07-28 14:53:00
11:44 AM,75.2,66.2,73,29.89,10.0,South,8.1,-,0.00,Rain-Thunderstorm,Light Thunderstorms and Rain,180,2013-07-28 15:44:00
11:53 AM,75.0,66.9,76,29.88,10.0,South,5.8,-,0.00,Rain,Light Rain,170,2013-07-28 15:53:00
12:53 PM,75.9,68.0,76,29.88,10.0,WSW,5.8,-,0.01,,Overcast,240,2013-07-28 16:53:00
1:53 PM,73.0,66.9,81,29.87,10.0,SW,3.5,-,0.00,Rain,Light Rain,220,2013-07-28 17:53:00
2:16 PM,69.8,66.2,88,29.89,10.0,WSW,13.8,19.6,0.03,Thunderstorm,Overcast,250,2013-07-28 18:16:00
2:38 PM,69.8,64.4,83,29.89,3.0,SW,8.1,-,0.06,Rain,Rain,230,2013-07-28 18:38:00
2:53 PM,69.1,64.9,87,29.90,6.0,SW,6.9,-,0.07,Rain,Light Rain,220,2013-07-28 18:53:00
3:53 PM,68.0,64.9,90,29.90,5.0,SE,3.5,-,0.05,Rain,Light Rain,140,2013-07-28 19:53:00
4:53 PM,68.0,64.9,90,29.90,9.0,SSE,6.9,-,0.07,Rain,Light Rain,150,2013-07-28 20:53:00
5:36 PM,68.0,64.4,88,29.90,10.0,South,4.6,-,0.00,,Overcast,170,2013-07-28 21:36:00
5:53 PM,69.1,66.0,90,29.90,10.0,ESE,4.6,-,0.00,,Overcast,120,2013-07-28 21:53:00
6:28 PM,68.0,66.2,94,29.90,10.0,SE,4.6,-,N/A,,Overcast,130,2013-07-28 22:28:00
6:53 PM,68.0,64.9,90,29.91,9.0,South,3.5,-,N/A,,Overcast,170,2013-07-28 22:53:00
7:09 PM,68.0,66.2,94,29.91,5.0,Calm,Calm,-,0.01,Rain,Light Rain,0,2013-07-28 23:09:00
7:16 PM,68.0,64.4,88,29.91,6.0,SE,5.8,-,0.01,Rain,Light Rain,130,2013-07-28 23:16:00
7:53 PM,68.0,66.0,93,29.92,8.0,SSE,4.6,-,0.01,,Overcast,150,2013-07-28 23:53:00
8:53 PM,66.0,64.0,93,29.92,7.0,SSE,3.5,-,N/A,,Scattered Clouds,160,2013-07-29 00:53:00
9:53 PM,63.0,62.1,97,29.94,7.0,Calm,Calm,-,N/A,,Clear,0,2013-07-29 01:53:00
10:53 PM,62.1,61.0,96,29.94,8.0,SSW,4.6,-,N/A,,Partly Cloudy,200,2013-07-29 02:53:00
11:53 PM,64.0,62.1,93,29.95,10.0,South,4.6,-,N/A,,Overcast,190,2013-07-29 03:53:00